{"data":{"norad_id":52994,"intl_designator":"2022-076J","name":"STARLINK-4256","alt_names":[],"object_type":"PAYLOAD","status":"ACTIVE","operator":null,"country":"US","launch_date":"2022-07-07","launch_site_code":"AFETR","launch_vehicle":null,"mission":null,"orbit_class":"UNKNOWN","rcs_meters":null,"size_class":null,"mass_kg":null,"dimensions":null,"purposes":["comms"],"wikipedia_slug":null,"has_3d_model":false,"image_url":null,"decayed_at":null,"tle_current":{"epoch":"2026-09-19T18:49:27.218784Z","epoch_age_seconds":131072,"freshness":"FRESH","line1":"1 52994U 22076J   26262.78434281  .00001833  00000+0  65361-4 0  9990","line2":"2 52994  53.1589 286.7133 0000845  70.5416 289.5678 15.34393876232362","mean_motion":15.34393876,"eccentricity":8.45e-5,"inclination_deg":53.1589,"raan_deg":286.7133,"arg_perigee_deg":70.5416,"mean_anomaly_deg":289.5678,"bstar":6.5361e-5,"rev_number":23236,"period_min":93.848132642052,"perigee_km":462.14338954786,"apogee_km":463.29949462458,"semimajor_km":6840.8584420862,"source":"CELESTRAK","updated_at":"2026-09-20T09:00:40.140151Z"}}}